Terminal Aerodrome Forecast
Issued by NWS

Home | Current Version | Previous Version | Text Only | Print | Product List | Glossary On
Versions: 1 2 3 4 5 6 7 8 9 10 11 12 13 14 15 16 17 18 19 20 21
000
FTUS41 KGYX 261700
TAFRKD
TAF
KRKD 261727Z 2618/2718 20010KT P6SM SCT060
     FM270000 22005KT P6SM SCT100
     FM271500 18008KT 5SM -SHRA BR BKN015 OVC050
      AMD LTD TO CLD VIS AND WIND=

USA.gov is the U.S. government's official web portal to all federal, state and local government web resources and services.